Location: Barcelona
(41.3830°N, 2.1830°E)
Time: 11:12:54
(UTC+02:00)

ISS - Pass Details

Date: 02 April 2020
Orbit: 417 x 419 km, 51.6° (Epoch: 31 May)

Event Time Altitude Azimuth Distance (km) Brightness Sun altitude
Rises 21:42:22 0° 308° (NW) 2,365 1.6 -16.1°
Reaches altitude 10° 21:44:30 10° 313° (NW) 1,498 0.2 -16.4°
Maximum altitude 21:47:48 52° 31° (NNE) 525 -3.4 -17.0°
Enters shadow 21:48:29 43° 74° (ENE) 600 -3.4 -17.1°
